{"data":{"norad_id":62250,"epoch":"2026-09-22T20:55:06.570048Z","epoch_age_seconds":105630,"freshness":"FRESH","line1":"1 62250U 24232P   26265.87160382  .00000092  00000+0  12358-3 0  9996","line2":"2 62250  89.0166  12.7275 0016108  95.7620 264.5368 13.51030984106203","mean_motion":13.51030984,"eccentricity":0.0016108,"inclination_deg":89.0166,"raan_deg":12.7275,"arg_perigee_deg":95.762,"mean_anomaly_deg":264.5368,"bstar":0.00012358,"rev_number":10620,"period_min":106.58526836569,"perigee_km":1056.472740547,"apogee_km":1080.4627223498,"semimajor_km":7446.6047314484,"source":"CELESTRAK","updated_at":"2026-09-23T09:00:21.336530Z"}}